Weather Roundup
Issued by NWS Chicago, IL

Home | Current Version | Previous Version | Text Only | Print | Product List | Glossary On
Versions: 1 2 3 4 5 6 7 8 9 10 11 12 13 14 15 16 17 18 19 20 21 22 23 24 25 26 27 28 29 30 31 32 33 34 35 36 37 38 39 40 41 42 43 44 45 46 47 48 49 50
785
NZUS59 KLOT 240308
HRRLOT

CHICAGO AREA WEATHER ROUNDUP
NATIONAL WEATHER SERVICE CHICAGO/ROMEOVILLE IL
1000 PM CDT WED AUG 23 2017

NOTE: "FAIR" INDICATES FEW OR NO CLOUDS BELOW 12,000 FEET WITH NO
SIGNIFICANT WEATHER AND/OR OBSTRUCTIONS TO VISIBILITY.

* THESE STATIONS ARE NOT UNDER NWS QUALITY CONTROL. THEY ALSO MAY NOT
  REPORT WEATHER SUCH AS PRECIPITATION OR FOG.

ILZ005-006-012>014-019>023-240400-
NORTHEAST ILLINOIS

CITY           SKY/WX    TMP DP  RH WIND       PRES   REMARKS
OHARE          PTCLDY    65  55  70 S5        30.03R
MIDWAY         PTCLDY    68  56  65 SE3       30.03R
AURORA         CLEAR     60  57  89 CALM      30.04R
LANSING*       CLEAR     60  57  91 CALM      30.04R
JOLIET*        CLEAR     65  58  80 CALM      30.03S
WAUKEGAN       CLEAR     58  57  97 SW3       30.02S
DUPAGE AIRPORT CLEAR     60  56  86 CALM      30.03R
WHEELING       CLEAR     63  58  83 CALM      30.04S
MORRIS*        CLEAR     59  55  85 NW3       30.02S
LEWIS AIRPORT* PTCLDY    63  57  80 CALM      30.04R
NORTHERLY ISL    N/A     67  55  65 E5          N/A
$$

WIZ051-052-058>065-066-070>072-240400-
SOUTHEAST WISCONSIN

CITY           SKY/WX    TMP DP  RH WIND       PRES   REMARKS
MILWAUKEE      PTCLDY    65  56  72 S3        30.03R
KENOSHA*       CLEAR     58  55  90 CALM      30.03S
RACINE*        CLEAR     63  58  83 CALM      30.04S
WEST BEND      CLEAR     55  54  94 CALM      30.03S
$$

INZ001>003-010>013-019-020-240400-
NORTHWEST INDIANA

CITY           SKY/WX    TMP DP  RH WIND       PRES   REMARKS
GARY*          PTCLDY    59  55  88 S3        30.04S
MICHIGAN CITY* NOT AVBL
RENSSELAER*    NOT AVBL
VALPARAISO     CLEAR     60  56  86 CALM      30.04S
$$

LMZ740>746-240400-
SOUTHERN LAKE MICHIGAN

STATION/POSITION TIME  SKY/WX   TEMP WIND        PRES    VSBY
                                AIR  DIR/SP/G
                 (UTC)          (F)  (DEG/KT/KT) (MB)    (MI)
HARRISON CRIB    0240            69  110/  4/  5   N/A
BURNHAM HARBOR   NOT AVBL
CALUMET HARBOR   0242            69  110/  4/  5 1016.3R
BURNS HARBOR     0240            68  110/  6/  7 1017.3S
MICHIGAN CITY    0240            65  140/  2/  3   N/A
$$

ABBREVIATIONS USED IN REMARKS
   TC - TEMPERATURE IN CELSIUS
  WCI - WIND CHILL INDEX
   HX - HEAT INDEX
  VSB - VISIBILITY
$$




USA.gov is the U.S. government's official web portal to all federal, state and local government web resources and services.